TimeCST,TemperatureF,Dew PointF,Humidity,Sea Level PressureIn,VisibilityMPH,Wind Direction,Wind SpeedMPH,Gust SpeedMPH,PrecipitationIn,Events,Conditions,WindDirDegrees,DateUTC
12:53 AM,70.0,62.1,76,29.51,10.0,South,24.2,38.0,N/A,,Partly Cloudy,190,2013-11-17 06:53:00
1:53 AM,70.0,63.0,78,29.50,10.0,South,25.3,34.5,N/A,,Partly Cloudy,190,2013-11-17 07:53:00
2:53 AM,70.0,63.0,78,29.50,10.0,South,25.3,33.4,N/A,,Clear,190,2013-11-17 08:53:00
3:53 AM,70.0,62.1,76,29.50,10.0,South,19.6,27.6,N/A,,Partly Cloudy,190,2013-11-17 09:53:00
4:53 AM,69.1,61.0,75,29.50,10.0,SSW,13.8,29.9,N/A,,Partly Cloudy,200,2013-11-17 10:53:00
5:53 AM,69.1,60.1,73,29.51,10.0,SSW,13.8,28.8,N/A,,Partly Cloudy,210,2013-11-17 11:53:00
6:53 AM,69.1,57.9,68,29.54,10.0,SW,15.0,24.2,N/A,,Partly Cloudy,230,2013-11-17 12:53:00
7:53 AM,70.0,53.1,55,29.60,10.0,WSW,17.3,27.6,N/A,,Clear,250,2013-11-17 13:53:00
8:53 AM,69.1,41.0,36,29.67,10.0,West,16.1,29.9,N/A,,Clear,280,2013-11-17 14:53:00
9:53 AM,66.0,35.1,32,29.73,10.0,NW,16.1,-,N/A,,Clear,310,2013-11-17 15:53:00
10:53 AM,69.1,34.0,27,29.76,10.0,NNW,12.7,-,N/A,,Clear,340,2013-11-17 16:53:00
11:53 AM,71.1,33.1,25,29.76,10.0,NNW,10.4,-,N/A,,Clear,330,2013-11-17 17:53:00
12:53 PM,73.9,28.9,19,29.77,10.0,NNW,11.5,-,N/A,,Clear,330,2013-11-17 18:53:00
1:53 PM,73.0,27.0,18,29.78,10.0,NNW,8.1,20.7,N/A,,Clear,330,2013-11-17 19:53:00
2:53 PM,73.0,28.0,19,29.81,10.0,WNW,13.8,-,N/A,,Clear,300,2013-11-17 20:53:00
3:53 PM,72.0,26.1,18,29.84,10.0,WNW,11.5,-,N/A,,Clear,300,2013-11-17 21:53:00
4:53 PM,66.9,27.0,22,29.88,10.0,NW,11.5,-,N/A,,Clear,320,2013-11-17 22:53:00
5:53 PM,62.1,27.0,26,29.93,10.0,NW,5.8,-,N/A,,Clear,320,2013-11-17 23:53:00
6:53 PM,59.0,25.0,27,29.96,10.0,WNW,3.5,-,N/A,,Clear,300,2013-11-18 00:53:00
7:53 PM,55.9,21.9,27,29.99,10.0,NW,6.9,-,N/A,,Clear,320,2013-11-18 01:53:00
8:53 PM,51.1,23.0,33,30.04,10.0,WNW,6.9,-,N/A,,Clear,290,2013-11-18 02:53:00
9:53 PM,55.0,17.1,23,30.06,10.0,North,4.6,-,N/A,,Clear,10,2013-11-18 03:53:00
10:53 PM,48.0,21.9,36,30.10,10.0,NW,5.8,-,N/A,,Clear,320,2013-11-18 04:53:00
11:53 PM,48.0,23.0,37,30.10,10.0,North,8.1,-,N/A,,Clear,360,2013-11-18 05:53:00